Tracking 27382 objects as of 5-Jun-2023
HD Live streaming from Space Station
objects crossing your sky now

STARLINK-1640

Track STARLINK-1640 now!
10-day predictions
STARLINK-1640 is classified as:


NORAD ID: 46173
Int'l Code: 2020-057BJ
Perigee: 553.6 km
Apogee: 555.1 km
Inclination: 53.1 °
Period: 95.6 minutes
Semi major axis: 6925 km
RCS: Unknown
Launch date: August 18, 2020
Source: United States (US)
Launch site: AIR FORCE EASTERN TEST RANGE (AFETR)
Your satellite tracking list
Your tracking list is empty




NASA's NSSDC Master Catalog

Two Line Element Set (TLE):
1 46173U 20057BJ  23155.29850105  .00000349  00000-0  42317-4 0  9998
2 46173  53.0542 167.9527 0001122  89.7899 270.3219 15.06400222153921
Source of the keplerian elements: AFSPC